Time,TemperatureF,DewpointF,PressureIn,WindDirection,WindDirectionDegrees,WindSpeedMPH,WindSpeedGustMPH,Humidity,HourlyPrecipIn,Conditions,Clouds,dailyrainin,SolarRadiationWatts/m^2,SoftwareType,DateUTC
2013-05-03 00:11:00,41.6,39.0,30.12,North,355,11.0,-999.0,90,-99.99,,,0.03,0,weatherlink.com 1.10,2013-05-03 05:11:00,
2013-05-03 00:26:00,41.3,39.0,30.11,NNW,337,12.0,-999.0,90,-99.99,,,0.04,0,weatherlink.com 1.10,2013-05-03 05:26:00,
2013-05-03 00:41:00,41.3,39.0,30.10,NNE,13,11.0,-999.0,91,-99.99,,,0.06,0,weatherlink.com 1.10,2013-05-03 05:41:00,
2013-05-03 00:56:00,41.1,39.0,30.10,North,5,14.0,-999.0,91,-99.99,,,0.07,0,weatherlink.com 1.10,2013-05-03 05:56:00,
2013-05-03 01:11:00,41.1,39.0,30.10,NNE,13,15.0,-999.0,91,-99.99,,,0.08,0,weatherlink.com 1.10,2013-05-03 06:11:00,
2013-05-03 01:26:00,40.9,39.0,30.10,North,5,13.0,-999.0,92,-99.99,,,0.10,0,weatherlink.com 1.10,2013-05-03 06:26:00,
2013-05-03 01:41:00,40.6,39.0,30.10,NNE,13,15.0,-999.0,92,-99.99,,,0.12,0,weatherlink.com 1.10,2013-05-03 06:41:00,
2013-05-03 01:56:00,40.6,39.0,30.09,NNW,338,12.0,-999.0,92,-99.99,,,0.12,0,weatherlink.com 1.10,2013-05-03 06:56:00,
2013-05-03 02:11:00,40.5,38.0,30.09,North,11,17.0,-999.0,92,-99.99,,,0.13,0,weatherlink.com 1.10,2013-05-03 07:11:00,
2013-05-03 02:26:00,40.3,38.0,30.08,NNE,19,15.0,-999.0,92,-99.99,,,0.14,0,weatherlink.com 1.10,2013-05-03 07:26:00,
2013-05-03 02:41:00,40.3,38.0,30.07,NNE,16,17.0,-999.0,92,-99.99,,,0.15,0,weatherlink.com 1.10,2013-05-03 07:41:00,
2013-05-03 02:56:00,39.9,38.0,30.07,NNE,13,15.0,-999.0,92,-99.99,,,0.16,0,weatherlink.com 1.10,2013-05-03 07:56:00,
2013-05-03 03:11:00,39.5,37.0,30.07,North,5,17.0,-999.0,92,-99.99,,,0.18,0,weatherlink.com 1.10,2013-05-03 08:11:00,
2013-05-03 03:26:00,39.3,38.0,30.06,North,5,14.0,-999.0,93,-99.99,,,0.19,0,weatherlink.com 1.10,2013-05-03 08:26:00,
2013-05-03 03:41:00,39.1,37.0,30.06,North,355,15.0,-999.0,93,-99.99,,,0.20,0,weatherlink.com 1.10,2013-05-03 08:41:00,
2013-05-03 03:56:00,38.9,37.0,30.05,NNE,13,14.0,-999.0,93,-99.99,,,0.21,0,weatherlink.com 1.10,2013-05-03 08:56:00,
2013-05-03 04:11:00,39.1,37.0,30.05,NE,42,10.0,-999.0,93,-99.99,,,0.21,0,weatherlink.com 1.10,2013-05-03 09:11:00,
2013-05-03 04:26:00,38.9,37.0,30.05,NNE,29,16.0,-999.0,93,-99.99,,,0.22,0,weatherlink.com 1.10,2013-05-03 09:26:00,
2013-05-03 04:41:00,38.8,37.0,30.05,NNE,32,18.0,-999.0,93,-99.99,,,0.22,0,weatherlink.com 1.10,2013-05-03 09:41:00,
2013-05-03 04:57:00,38.6,37.0,30.04,NNE,26,18.0,-999.0,93,-99.99,,,0.23,0,weatherlink.com 1.10,2013-05-03 09:57:00,
2013-05-03 05:12:00,38.8,37.0,30.05,NNE,30,15.0,-999.0,93,-99.99,,,0.23,0,weatherlink.com 1.10,2013-05-03 10:12:00,
2013-05-03 05:27:00,38.6,37.0,30.04,NNE,17,14.0,-999.0,93,-99.99,,,0.24,0,weatherlink.com 1.10,2013-05-03 10:27:00,
2013-05-03 05:42:00,38.6,37.0,30.03,North,9,14.0,-999.0,93,-99.99,,,0.24,0,weatherlink.com 1.10,2013-05-03 10:42:00,
2013-05-03 05:57:00,38.5,37.0,30.03,NNE,32,10.0,-999.0,93,-99.99,,,0.26,0,weatherlink.com 1.10,2013-05-03 10:57:00,
2013-05-03 06:12:00,38.5,37.0,30.03,NNE,26,10.0,-999.0,94,-99.99,,,0.28,0,weatherlink.com 1.10,2013-05-03 11:12:00,
2013-05-03 06:27:00,38.8,37.0,30.04,NNE,16,11.0,-999.0,94,-99.99,,,0.29,5,weatherlink.com 1.10,2013-05-03 11:27:00,
2013-05-03 06:42:00,38.9,37.0,30.03,NNE,25,7.0,-999.0,94,-99.99,,,0.32,5,weatherlink.com 1.10,2013-05-03 11:42:00,
2013-05-03 06:57:00,38.8,37.0,30.03,ENE,67,12.0,-999.0,94,-99.99,,,0.34,12,weatherlink.com 1.10,2013-05-03 11:57:00,
2013-05-03 07:12:00,38.9,37.0,30.02,NNE,30,10.0,-999.0,94,-99.99,,,0.37,25,weatherlink.com 1.10,2013-05-03 12:12:00,
2013-05-03 07:27:00,39.1,38.0,30.02,NE,34,3.0,-999.0,94,-99.99,,,0.39,25,weatherlink.com 1.10,2013-05-03 12:27:00,
2013-05-03 07:42:00,38.9,37.0,30.02,North,9,5.0,-999.0,94,-99.99,,,0.39,30,weatherlink.com 1.10,2013-05-03 12:42:00,
2013-05-03 07:57:00,39.1,38.0,30.01,North,9,6.0,-999.0,94,-99.99,,,0.41,30,weatherlink.com 1.10,2013-05-03 12:57:00,
2013-05-03 08:12:00,39.2,38.0,30.01,North,5,6.0,-999.0,94,-99.99,,,0.43,28,weatherlink.com 1.10,2013-05-03 13:12:00,
2013-05-03 08:27:00,39.1,38.0,30.00,ENE,62,5.0,-999.0,94,-99.99,,,0.46,33,weatherlink.com 1.10,2013-05-03 13:27:00,
2013-05-03 08:42:00,39.2,38.0,29.99,NNE,20,13.0,-999.0,94,-99.99,,,0.48,32,weatherlink.com 1.10,2013-05-03 13:42:00,
2013-05-03 08:57:00,39.2,38.0,29.99,NNE,16,15.0,-999.0,94,-99.99,,,0.52,28,weatherlink.com 1.10,2013-05-03 13:57:00,
2013-05-03 09:12:00,39.3,38.0,29.99,NNE,19,13.0,-999.0,94,-99.99,,,0.61,51,weatherlink.com 1.10,2013-05-03 14:12:00,
2013-05-03 09:27:00,39.6,38.0,29.97,NNE,23,15.0,-999.0,95,-99.99,,,0.66,60,weatherlink.com 1.10,2013-05-03 14:27:00,
2013-05-03 09:42:00,39.8,39.0,29.97,NE,34,9.0,-999.0,95,-99.99,,,0.69,83,weatherlink.com 1.10,2013-05-03 14:42:00,
2013-05-03 09:57:00,39.9,39.0,29.96,NNE,26,11.0,-999.0,95,-99.99,,,0.73,37,weatherlink.com 1.10,2013-05-03 14:57:00,
2013-05-03 10:12:00,40.2,39.0,29.97,NNE,30,4.0,-999.0,95,-99.99,,,0.77,42,weatherlink.com 1.10,2013-05-03 15:12:00,
2013-05-03 10:27:00,40.5,39.0,30.00,North,5,3.0,-999.0,95,-99.99,,,0.81,56,weatherlink.com 1.10,2013-05-03 15:27:00,
2013-05-03 10:42:00,40.8,40.0,29.99,NNW,342,6.0,-999.0,95,-99.99,,,0.84,83,weatherlink.com 1.10,2013-05-03 15:42:00,
2013-05-03 10:57:00,41.1,40.0,29.99,NNW,348,5.0,-999.0,95,-99.99,,,0.87,70,weatherlink.com 1.10,2013-05-03 15:57:00,
2013-05-03 11:12:00,41.2,40.0,29.98,North,360,9.0,-999.0,95,-99.99,,,0.90,84,weatherlink.com 1.10,2013-05-03 16:12:00,
2013-05-03 11:27:00,41.5,40.0,29.98,North,355,8.0,-999.0,95,-99.99,,,0.94,84,weatherlink.com 1.10,2013-05-03 16:27:00,
2013-05-03 11:42:00,42.1,41.0,29.97,North,11,8.0,-999.0,95,-99.99,,,0.97,97,weatherlink.com 1.10,2013-05-03 16:42:00,
2013-05-03 11:57:00,42.5,41.0,29.97,North,10,11.0,-999.0,95,-99.99,,,0.99,97,weatherlink.com 1.10,2013-05-03 16:57:00,
2013-05-03 12:12:00,42.9,42.0,29.96,NNE,27,10.0,-999.0,95,-99.99,,,1.00,90,weatherlink.com 1.10,2013-05-03 17:12:00,
2013-05-03 12:27:00,43.1,42.0,29.96,NNE,22,8.0,-999.0,95,-99.99,,,1.03,84,weatherlink.com 1.10,2013-05-03 17:27:00,
2013-05-03 12:42:00,43.8,43.0,29.95,North,5,12.0,-999.0,96,-99.99,,,1.05,160,weatherlink.com 1.10,2013-05-03 17:42:00,
2013-05-03 12:57:00,44.2,43.0,29.94,NE,38,4.0,-999.0,95,-99.99,,,1.06,116,weatherlink.com 1.10,2013-05-03 17:57:00,
2013-05-03 13:12:00,44.6,43.0,29.94,North,5,4.0,-999.0,95,-99.99,,,1.08,69,weatherlink.com 1.10,2013-05-03 18:12:00,
2013-05-03 13:27:00,44.6,43.0,29.94,NNW,334,4.0,-999.0,95,-99.99,,,1.11,69,weatherlink.com 1.10,2013-05-03 18:27:00,
2013-05-03 13:42:00,44.9,44.0,29.95,North,355,7.0,-999.0,95,-99.99,,,1.15,128,weatherlink.com 1.10,2013-05-03 18:42:00,
2013-05-03 13:57:00,45.2,44.0,29.93,NNE,26,2.0,-999.0,95,-99.99,,,1.17,97,weatherlink.com 1.10,2013-05-03 18:57:00,
2013-05-03 14:12:00,45.2,44.0,29.93,NNE,19,10.0,-999.0,95,-99.99,,,1.22,144,weatherlink.com 1.10,2013-05-03 19:12:00,
2013-05-03 14:27:00,45.5,44.0,29.93,North,9,10.0,-999.0,95,-99.99,,,1.24,91,weatherlink.com 1.10,2013-05-03 19:27:00,
2013-05-03 14:42:00,45.5,44.0,29.93,NNE,32,11.0,-999.0,95,-99.99,,,1.32,95,weatherlink.com 1.10,2013-05-03 19:42:00,
2013-05-03 14:57:00,46.0,45.0,29.92,NNE,14,12.0,-999.0,95,-99.99,,,1.34,151,weatherlink.com 1.10,2013-05-03 19:57:00,
2013-05-03 15:12:00,46.2,45.0,29.91,NE,42,5.0,-999.0,95,-99.99,,,1.34,144,weatherlink.com 1.10,2013-05-03 20:12:00,
2013-05-03 15:27:00,46.5,45.0,29.89,ENE,60,11.0,-999.0,95,-99.99,,,1.35,70,weatherlink.com 1.10,2013-05-03 20:27:00,
2013-05-03 15:42:00,47.0,46.0,29.89,NNE,28,11.0,-999.0,95,-99.99,,,1.37,135,weatherlink.com 1.10,2013-05-03 20:42:00,
2013-05-03 15:57:00,47.1,46.0,29.88,NE,44,10.0,-999.0,95,-99.99,,,1.37,56,weatherlink.com 1.10,2013-05-03 20:57:00,
2013-05-03 16:12:00,47.3,46.0,29.88,NNE,30,5.0,-999.0,95,-99.99,,,1.37,23,weatherlink.com 1.10,2013-05-03 21:12:00,
2013-05-03 16:27:00,47.4,46.0,29.89,NE,50,7.0,-999.0,95,-99.99,,,1.39,33,weatherlink.com 1.10,2013-05-03 21:27:00,
2013-05-03 16:43:00,47.6,46.0,29.89,North,11,7.0,-999.0,95,-99.99,,,1.42,25,weatherlink.com 1.10,2013-05-03 21:43:00,
2013-05-03 16:58:00,47.6,46.0,29.89,NNE,13,8.0,-999.0,95,-99.99,,,1.52,35,weatherlink.com 1.10,2013-05-03 21:58:00,
2013-05-03 17:13:00,47.9,47.0,29.88,North,5,9.0,-999.0,95,-99.99,,,1.56,37,weatherlink.com 1.10,2013-05-03 22:13:00,
2013-05-03 17:28:00,48.0,47.0,29.86,North,5,7.0,-999.0,96,-99.99,,,1.59,11,weatherlink.com 1.10,2013-05-03 22:28:00,
2013-05-03 17:43:00,48.2,47.0,29.87,NNE,24,7.0,-999.0,96,-99.99,,,1.59,18,weatherlink.com 1.10,2013-05-03 22:43:00,
2013-05-03 17:58:00,48.6,48.0,29.87,North,9,13.0,-999.0,96,-99.99,,,1.61,37,weatherlink.com 1.10,2013-05-03 22:58:00,
2013-05-03 18:13:00,48.9,48.0,29.86,NE,36,13.0,-999.0,96,-99.99,,,1.61,23,weatherlink.com 1.10,2013-05-03 23:13:00,
2013-05-03 18:28:00,49.4,48.0,29.85,NNE,20,9.0,-999.0,96,-99.99,,,1.61,21,weatherlink.com 1.10,2013-05-03 23:28:00,
2013-05-03 18:43:00,49.6,49.0,29.85,NNE,28,4.0,-999.0,96,-99.99,,,1.61,19,weatherlink.com 1.10,2013-05-03 23:43:00,
2013-05-03 18:58:00,49.8,49.0,29.84,NE,41,9.0,-999.0,96,-99.99,,,1.61,16,weatherlink.com 1.10,2013-05-03 23:58:00,
2013-05-03 19:13:00,50.1,49.0,29.84,NNE,19,5.0,-999.0,96,-99.99,,,1.61,9,weatherlink.com 1.10,2013-05-04 00:13:00,
2013-05-03 19:28:00,50.4,49.0,29.85,NNE,21,6.0,-999.0,96,-99.99,,,1.61,7,weatherlink.com 1.10,2013-05-04 00:28:00,
2013-05-03 19:43:00,50.7,50.0,29.84,NE,34,2.0,-999.0,96,-99.99,,,1.61,0,weatherlink.com 1.10,2013-05-04 00:43:00,
2013-05-03 19:58:00,51.0,50.0,29.84,NNE,16,7.0,-999.0,96,-99.99,,,1.61,0,weatherlink.com 1.10,2013-05-04 00:58:00,
2013-05-03 20:13:00,51.6,51.0,29.84,NE,49,11.0,-999.0,97,-99.99,,,1.61,0,weatherlink.com 1.10,2013-05-04 01:13:00,
2013-05-03 20:28:00,51.9,51.0,29.84,NE,52,6.0,-999.0,97,-99.99,,,1.61,0,weatherlink.com 1.10,2013-05-04 01:28:00,
2013-05-03 20:43:00,52.2,51.0,29.84,NE,51,7.0,-999.0,97,-99.99,,,1.61,0,weatherlink.com 1.10,2013-05-04 01:43:00,
2013-05-03 20:58:00,52.3,51.0,29.84,ENE,58,12.0,-999.0,96,-99.99,,,1.61,0,weatherlink.com 1.10,2013-05-04 01:58:00,
2013-05-03 21:13:00,52.5,51.0,29.85,NE,52,13.0,-999.0,96,-99.99,,,1.61,0,weatherlink.com 1.10,2013-05-04 02:13:00,
2013-05-03 21:28:00,52.6,52.0,29.84,NE,47,16.0,-999.0,96,-99.99,,,1.61,0,weatherlink.com 1.10,2013-05-04 02:28:00,
2013-05-03 21:43:00,52.5,51.0,29.84,ENE,57,13.0,-999.0,96,-99.99,,,1.61,0,weatherlink.com 1.10,2013-05-04 02:43:00,
2013-05-03 21:58:00,52.3,51.0,29.84,NE,55,17.0,-999.0,96,-99.99,,,1.61,0,weatherlink.com 1.10,2013-05-04 02:58:00,
2013-05-03 22:13:00,52.2,51.0,29.84,NE,53,20.0,-999.0,96,-99.99,,,1.62,0,weatherlink.com 1.10,2013-05-04 03:13:00,
2013-05-03 22:28:00,52.0,51.0,29.85,NE,55,12.0,-999.0,96,-99.99,,,1.63,0,weatherlink.com 1.10,2013-05-04 03:28:00,
2013-05-03 22:43:00,52.0,51.0,29.84,ENE,71,16.0,-999.0,96,-99.99,,,1.63,0,weatherlink.com 1.10,2013-05-04 03:43:00,
2013-05-03 22:58:00,52.0,51.0,29.84,NE,43,16.0,-999.0,96,-99.99,,,1.63,0,weatherlink.com 1.10,2013-05-04 03:58:00,
2013-05-03 23:13:00,51.9,51.0,29.83,ENE,69,10.0,-999.0,96,-99.99,,,0.00,0,weatherlink.com 1.10,2013-05-04 04:13:00,
2013-05-03 23:28:00,51.7,51.0,29.83,NNE,28,13.0,-999.0,96,-99.99,,,0.00,0,weatherlink.com 1.10,2013-05-04 04:28:00,
2013-05-03 23:43:00,51.6,51.0,29.82,NE,53,12.0,-999.0,96,-99.99,,,0.00,0,weatherlink.com 1.10,2013-05-04 04:43:00,
2013-05-03 23:58:00,51.4,50.0,29.83,NE,44,12.0,-999.0,95,-99.99,,,0.00,0,weatherlink.com 1.10,2013-05-04 04:58:00,